Flag for Germany Weather past 2 weeks in Norderstedt, Schleswig-Holstein, Germany

Now
54 °F

Clear.


Feels Like: 52 °F
Forecast: 40 / 65 °F
Wind: 6 mph from West

Location: Hamburg-Fuhlsbuettel

Current Time: May 23, 2015 at 5:21:06 AM

Latest Report: May 23, 2015 at 4:50 AM


Visibility: 10 mi

Pressure: 30.12 "Hg

Humidity: 82%

Dew point: 48 °F

Location of NorderstedtLocation

Historic Weather in Norderstedt — Graph

°F

Norderstedt temperature yesterday

Maximum temperature yesterday: 66 °F (at 4:20 PM)
Minimum temperature yesterday: 43 °F (at 3:50 AM)
Average temperature yesterday: 56 °F

Past Weeks' High & Low Weather Summary

 TemperatureHumidityPressure
High73 °F (May 11, 3:20 PM)100% (May 8, 4:20 AM)30.33 "Hg (May 8, 4:20 AM)
Low39 °F (May 8, 4:20 AM)38% (May 10, 7:20 PM)29.56 "Hg (May 19, 2:20 AM)
Average52 °F74%30.02 "Hg
* Reported May 8 4:20 AM — May 23 4:20 AM, Norderstedt, Weather by CustomWeather, © 2015

Note: Actual official high and low records may vary slightly from our data, if they occured in-between our weather recording intervals... More about our weather records

Advertising

Norderstedt weather history for previous 24 hours

 ConditionsComfort  
Time TempWeatherWind HumidityBarometerVisibility
4:20 AM
Sat, May 23
55 °FPassing clouds.7 mph77%30.12 "HgN/A
3:50 AM54 °FClear.5 mph82%30.12 "Hg10 mi
3:20 AM54 °FClear.5 mph82%30.12 "Hg10 mi
2:50 AM54 °FClear.3 mph82%30.15 "Hg10 mi
2:20 AM54 °FPassing clouds.3 mph77%30.15 "HgN/A
1:50 AM55 °FClear.3 mph72%30.15 "Hg10 mi
1:20 AM55 °FClear.5 mph77%30.15 "Hg10 mi
12:50 AM55 °FPassing clouds.5 mph72%30.15 "HgN/A
12:20 AM55 °FClear.7 mph72%30.15 "Hg10 mi
11:50 PM
Fri, May 22
55 °FClear.3 mph72%30.15 "Hg10 mi
11:20 PM57 °FClear.6 mph67%30.18 "Hg10 mi
10:50 PM55 °FClear.3 mph72%30.18 "Hg10 mi
10:20 PM55 °FSunny.5 mph72%30.18 "Hg10 mi
9:50 PM57 °FSunny.8 mph67%30.18 "Hg10 mi
9:20 PM61 °FSunny.8 mph63%30.15 "Hg10 mi
8:50 PM61 °FSunny.10 mph68%30.15 "Hg10 mi
8:20 PM63 °FSunny.9 mph59%30.15 "Hg10 mi
7:50 PM63 °FSunny.6 mph56%30.15 "Hg10 mi
7:20 PM64 °FSunny.5 mph56%30.15 "Hg10 mi
6:50 PM64 °FPartly sunny.7 mph52%30.15 "HgN/A
6:20 PM64 °FPartly sunny.6 mph52%30.15 "HgN/A
5:50 PM64 °FPartly sunny.7 mph52%30.18 "HgN/A
5:20 PM64 °FPartly sunny.5 mph56%30.18 "HgN/A
4:50 PM64 °FPartly sunny.7 mph52%30.18 "HgN/A
4:20 PM66 °FPartly sunny.9 mph49%30.18 "HgN/A
3:50 PM64 °FBroken clouds.9 mph56%30.21 "HgN/A
3:20 PM64 °FPassing clouds.10 mph52%30.21 "HgN/A
2:50 PM64 °FPassing clouds.8 mph52%30.21 "HgN/A
2:20 PM64 °FPartly sunny.9 mph52%30.21 "HgN/A
1:50 PM64 °FScattered clouds.9 mph52%30.21 "HgN/A
1:20 PM63 °FScattered clouds.13 mph52%30.24 "HgN/A
12:50 PM63 °FScattered clouds.8 mph59%30.24 "HgN/A
12:20 PM63 °FScattered clouds.9 mph59%30.24 "HgN/A
11:50 AM61 °FScattered clouds.7 mph59%30.27 "HgN/A
11:20 AM59 °FScattered clouds.7 mph63%30.27 "HgN/A
10:50 AM59 °FScattered clouds.9 mph63%30.27 "HgN/A
10:20 AM57 °FScattered clouds.9 mph67%30.27 "HgN/A
9:50 AM55 °FScattered clouds.7 mph72%30.27 "HgN/A
9:20 AM55 °FScattered clouds.6 mph67%30.30 "HgN/A
8:50 AM54 °FScattered clouds.7 mph77%30.30 "HgN/A
8:20 AM54 °FPassing clouds.6 mph77%30.30 "HgN/A
7:50 AM52 °FPassing clouds.5 mph88%30.30 "HgN/A
7:20 AM50 °FPassing clouds.3 mph94%30.27 "HgN/A
6:50 AM48 °FSunny.5 mph94%30.27 "Hg10 mi
6:20 AM45 °FPassing clouds.3 mph100%30.27 "HgN/A
5:50 AM45 °FFog.3 mph93%30.27 "HgN/A
5:20 AM45 °FFog.3 mph93%30.27 "HgN/A
Weather by CustomWeather, © 2015

See weather overviewHow to use our weather pages